Content
SEND FEEDBACK

Daily
Averages
Monthly
Summary
United States of America

MILAN, MICHIGAN


Home > North America > United States > Michigan
Elevation: 660 feet     Latitude: 42 05N     Longitude: 083 35W

WEATHER
 
SELECT A DAY
Number of Records: 202,542;   Date Range: 1/1/95 - 7/23/14
 
SHARE

PRINT THIS DATA

[ ← Previous Day ]
WEATHER ALMANAC - JANUARY 17, 2013
[ Next Day → ]
[ °C ]   °F
Weather ElementAverageHighLow
Temperature33.2 °F39 °F (12:53 pm)21.9 °F (10:53 pm)
Dewpoint19.3 °F27 °F (1:53 am)6.1 °F (9:53 pm)
Humidity57.5 %72 % (7:53 am)43 % (3:53 pm)
Barometer30.15 in30.32 in (9:53 pm)30.01 in (1:53 am)
Wind Speed11.1 mph21.9 mph (6:53 pm)
Wind Gust29.9 mph (6:53 pm)
Weather ElementAverage
Visibility10 mi
Wind DirectionWNW (301.2 °)

Weather ElementTotal
Precipitation---
Heating Degree Days34.6 (Base 65)
Averaged from 26 records on January 17, 2013
WEATHER CONDITIONS BREAKOUT
WIND DIRECTION BREAKOUT
WEATHER BY HOUR - JANUARY 17, 2013
[ °C ]   °F
Local TimeTemperatureDewpointHumidityBarometerVisibilityWind DirectionWind SpeedGust SpeedPrecipitationEventsConditions
1:53 AM37.0 °F27.0 °F67 %30.01 in10.0 miWest (280°)9.2 mphOvercast
2:43 AM37.4 °F26.6 °F65 %30.02 in10.0 miWest (280°)8.1 mphOvercast
2:51 AM37.4 °F26.6 °F65 %30.02 in10.0 miWest (280°)9.2 mphOvercast
2:53 AM37.0 °F27.0 °F67 %30.04 in10.0 miWNW (290°)8.1 mphOvercast
3:33 AM37.4 °F26.6 °F65 %30.04 in10.0 miWNW (290°)9.2 mphOvercast
3:53 AM37.0 °F27.0 °F67 %30.05 in10.0 miWNW (290°)6.9 mphOvercast
4:53 AM36.0 °F27.0 °F70 %30.07 in10.0 miNW (310°)6.9 mphOvercast
5:18 AM35.6 °F26.6 °F70 %30.07 in10.0 miWNW (290°)5.8 mphOvercast
5:53 AM34.0 °F25.0 °F70 %30.10 in10.0 miWNW (290°)6.9 mphMostly Cloudy
7:53 AM30.9 °F23.0 °F72 %30.13 in10.0 miWNW (300°)5.8 mphClear
8:53 AM30.9 °F21.9 °F69 %30.16 in10.0 miNNW (340°)5.8 mphClear
9:53 AM34.0 °F23.0 °F64 %30.19 in10.0 miNNW (340°)10.4 mphClear
10:53 AM36.0 °F19.9 °F52 %30.20 in10.0 miNW (320°)10.4 mph18.4 mphClear
11:53 AM37.0 °F19.0 °F48 %30.18 in10.0 miNW (310°)12.7 mphPartly Cloudy
12:53 PM39.0 °F19.0 °F45 %30.15 in10.0 miWest (280°)9.2 mphPartly Cloudy
1:53 PM39.0 °F19.0 °F45 %30.13 in10.0 miWNW (290°)12.7 mph20.7 mphScattered Clouds
2:53 PM39.0 °F19.0 °F45 %30.12 in10.0 miWNW (300°)16.1 mph23.0 mphPartly Cloudy
3:53 PM37.9 °F17.1 °F43 %30.12 in10.0 miWNW (290°)17.3 mphPartly Cloudy
4:53 PM34.0 °F16.0 °F48 %30.16 in10.0 miNW (310°)18.4 mph25.3 mphPartly Cloudy
5:53 PM30.0 °F14.0 °F51 %30.20 in10.0 miWNW (300°)13.8 mphClear
6:53 PM28.0 °F12.9 °F53 %30.23 in10.0 miWNW (290°)21.9 mph29.9 mphMostly Cloudy
7:53 PM26.1 °F12.0 °F55 %30.27 in10.0 miWNW (290°)13.8 mphMostly Cloudy
8:53 PM25.0 °F8.1 °F49 %30.30 in10.0 miNW (310°)17.3 mph26.5 mphOvercast
9:53 PM23.0 °F6.1 °F48 %30.32 in10.0 miNW (320°)12.7 mphOvercast
10:53 PM21.9 °F6.1 °F51 %30.32 in10.0 miNW (320°)11.5 mph16.1 mphMostly Cloudy
11:53 PM21.9 °F6.1 °F51 %30.32 in10.0 miNW (320°)9.2 mphOvercast
Hourly data recorded from KYIP, located miles away from Milan, Michigan







STORIES FROM OUR PARTNERS